Home > Weather > Bottrop > Past weeks

Flag for Germany Weather for the Past 2 Weeks in Bottrop, North Rhine-Westphalia, Germany

Now
54 °F

Clear.


Feels Like: 53 °F
Forecast: 44 / 57 °F
Wind: 5 mph from Southwest

Location: Duesseldorf

Current Time: May 3, 2016 at 1:59:08 AM

Latest Report: May 3, 2016 at 1:20 AM


Visibility: 10 mi

Pressure: 30.09 "Hg

Humidity: 67%

Dew Point: 43 °F

Location of BottropLocation

Historic Weather in Bottrop — Graph

°F

Bottrop Temperature Yesterday

Maximum temperature yesterday: 68 °F (at 3:50 PM)
Minimum temperature yesterday: 36 °F (at 5:20 AM)
Average temperature yesterday: 54 °F

High & Low Weather Summary for the Past Weeks

 TemperatureHumidityPressure
High68 °F (Apr 21, 3:50 PM)100% (Apr 18, 12:20 AM)30.48 "Hg (Apr 18, 12:20 AM)
Low32 °F (Apr 18, 5:20 AM)34% (Apr 20, 4:50 PM)29.50 "Hg (Apr 26, 8:20 AM)
Average46 °F73%30.04 "Hg
* Reported Apr 18 12:20 AM — May 3 12:50 AM, Bottrop, Weather by CustomWeather, © 2016

Note: Actual official high and low records may vary slightly from our data, if they occured in-between our weather recording intervals... More about our weather records

Advertising

Bottrop Weather History for the Previous 24 Hours

Scroll right to see more
 ConditionsComfort  
Time TempWeatherWind HumidityBarometerVisibility
12:50 AM
Tue, May 3
52 °FClear.5 mph77%30.09 "Hg10 mi
12:20 AM52 °FClear.3 mph82%30.09 "Hg10 mi
11:50 PM
Mon, May 2
55 °FClear.3 mph72%30.09 "Hg10 mi
11:20 PM55 °FClear.3 mph67%30.09 "Hg10 mi
10:50 PM55 °FClear.6 mph67%30.09 "Hg10 mi
10:20 PM55 °FClear.5 mph72%30.09 "Hg10 mi
9:50 PM55 °FSunny.6 mph72%30.09 "Hg10 mi
9:20 PM57 °FSunny.5 mph67%30.09 "Hg10 mi
8:50 PM61 °FSunny.5 mph59%30.09 "Hg10 mi
8:20 PM63 °FSunny.5 mph52%30.09 "Hg10 mi
7:50 PM63 °FSunny.5 mph52%30.09 "Hg10 mi
7:20 PM64 °FSunny.5 mph49%30.09 "Hg10 mi
6:50 PM64 °FSunny.7 mph49%30.09 "Hg10 mi
6:20 PM66 °FSunny.6 mph40%30.12 "Hg10 mi
5:50 PM66 °FSunny.6 mph40%30.12 "Hg10 mi
5:20 PM68 °FPassing clouds.5 mph35%30.12 "HgN/A
4:50 PM68 °FSunny.2 mph38%30.15 "Hg10 mi
4:20 PM66 °FPassing clouds.6 mph40%30.15 "HgN/A
3:50 PM68 °FSunny.5 mph40%30.15 "Hg10 mi
3:20 PM66 °FSunny.5 mph37%30.18 "Hg10 mi
2:50 PM66 °FSunny.5 mph43%30.18 "Hg10 mi
2:20 PM64 °FPassing clouds.7 mph40%30.18 "HgN/A
1:50 PM64 °FSunny.5 mph40%30.21 "Hg10 mi
1:20 PM64 °FScattered clouds.7 mph46%30.21 "HgN/A
12:50 PM63 °FScattered clouds.6 mph56%30.24 "HgN/A
12:20 PM63 °FScattered clouds.5 mph56%30.24 "HgN/A
11:20 AM59 °FPassing clouds.6 mph63%30.27 "HgN/A
10:50 AM57 °FPassing clouds.3 mph67%30.27 "HgN/A
10:20 AM55 °FSunny.3 mph67%30.27 "Hg10 mi
9:50 AM54 °FSunny.5 mph72%30.27 "Hg10 mi
9:20 AM52 °FPassing clouds.5 mph72%30.27 "HgN/A
8:50 AM50 °FSunny.1 mph82%30.27 "Hg10 mi
8:20 AM48 °FSunny.1 mph82%30.30 "Hg10 mi
7:20 AM39 °FSunny.3 mph100%30.30 "Hg10 mi
6:50 AM37 °FFog.2 mph100%30.30 "HgN/A
6:20 AM37 °FFog.1 mph100%30.30 "HgN/A
5:20 AM36 °FFog.2 mph100%30.30 "HgN/A
4:50 AM37 °FFog.1 mph100%30.30 "HgN/A
4:20 AM39 °FClear.1 mph93%30.30 "Hg10 mi
3:50 AM39 °FClear.2 mph100%30.30 "Hg10 mi
3:20 AM37 °FFog.2 mph100%30.30 "HgN/A
2:50 AM39 °FFog.2 mph93%30.30 "HgN/A
2:20 AM39 °FFog.1 mph100%30.30 "HgN/A
1:50 AM39 °FFog.1 mph100%30.30 "HgN/A
1:20 AM41 °FFog.1 mph93%30.33 "HgN/A
Weather by CustomWeather, © 2016

See weather overviewHow to use our weather pages